User: anonymous   Login
Location: Unspecified
(0.0000°N, 0.0000°E)
Time: 02:51:45
(UTC+00:00)
Language:

Kosmos-2266 - Orbit

View from above orbital plane
View from above orbital plane
View from above satellite
View from above satellite

Ground track
Ground track

The orbit data is extracted from the following two-line orbital elements,

1 22888U 93070A   18321.65035152 +.00000040 +00000-0 +26189-4 0  9993
2 22888 082.9489 329.8031 0047947 353.9336 144.6657 13.74921721253560
Epoch (UTC): 17 November 2018 15:36:30
Eccentricity: 0.0047947
inclination: 82.9489°
perigee height: 946 km
apogee height: 1017 km
right ascension of ascending node: 329.8031°
argument of perigee: 353.9336°
revolutions per day: 13.74921721
mean anomaly at epoch: 144.6657°
orbit number at epoch: 25356

The dashed part of the orbit path shows where the satellite is in the earth's shadow,  

DLR